User: anonymous   Login
Location: Antichan
(42.9728°N, 0.6667°E)
Time: 07:02:28
(UTC+00:00)
Language:

Cosmos 2100 Rocket - Orbit

View from above orbital plane
View from above orbital plane
View from above satellite
View from above satellite

Ground track
Ground track

The orbit data is extracted from the following two-line orbital elements,

1 20805U 90083B   20295.23742109 -.00000008 +00000-0 -24207-4 0  9990
2 20805 082.9379 233.5890 0029612 218.1626 254.2870 13.75898972511173
Epoch (UTC): 21 October 2020 05:41:53
Eccentricity: 0.0029612
inclination: 82.9379°
perigee height: 956 km
apogee height: 1000 km
right ascension of ascending node: 233.5890°
argument of perigee: 218.1626°
revolutions per day: 13.75898972
mean anomaly at epoch: 254.2870°
orbit number at epoch: 51117

The dashed part of the orbit path shows where the satellite is in the earth's shadow,  

DLR